DW0282 Weather Reports


time (UTC)temp
F
wind
direction
speed
knots
gust
knots
rain 1hr
in
rain 24hr
in
rain mn
in
humidity
%
barometer
mb
20260505041657 60 201 0.9 2.6 0.00 0.00 0.00 59 1012.1
20260505041537 60 201 0.0 2.6 0.00 0.00 0.00 59 1012.1
20260505041441 60 198 0.0 2.6 0.00 0.00 0.00 59 1012.1
20260505041323 60 198 0.0 2.6 0.00 0.00 0.00 59 1012.0
20260505041233 60 198 0.0 2.6 0.00 0.00 0.00 59 1012.1
20260505041139 60 171 0.0 0.9 0.00 0.00 0.00 60 1012.1
20260505041022 60 171 0.0 1.7 0.00 0.00 0.00 60 1012.0
20260505040923 60 171 0.0 1.7 0.00 0.00 0.00 60 1012.1
20260505040841 60 171 0.0 1.7 0.00 0.00 0.00 60 1012.1
20260505040735 60 171 0.0 1.7 0.00 0.00 0.00 60 1012.1
20260505040621 60 171 0.0 1.7 0.00 0.00 0.00 60 1012.0
20260505040517 60 171 0.0 1.7 0.00 0.00 0.00 60 1012.0
20260505040437 60 171 0.0 2.6 0.00 0.00 0.00 60 1012.0
20260505040325 60 171 0.0 2.6 0.00 0.00 0.00 60 1012.0
20260505040244 61 171 0.9 2.6 0.00 0.00 0.00 59 1012.1
20260505040148 61 171 0.9 2.6 0.00 0.00 0.00 58 1012.0
20260505040115 61 171 0.0 2.6 0.00 0.00 0.00 57 1012.0
20260505035941 61 171 0.0 2.6 0.00 0.00 0.00 58 1012.1
20260505035819 61 169 0.0 2.6 0.00 0.00 0.00 58 1012.0
20260505035732 61 169 0.0 2.6 0.00 0.00 0.00 57 1012.0
20260505035628 61 169 0.0 3.5 0.00 0.00 0.00 57 1012.0
20260505035521 61 180 0.0 1.7 0.00 0.00 0.00 58 1012.0
20260505035424 61 180 0.0 1.7 0.00 0.00 0.00 58 1012.1
20260505035330 61 180 0.0 1.7 0.00 0.00 0.00 58 1012.1
20260505035214 61 180 0.0 1.7 0.00 0.00 0.00 58 1012.0
20260505035128 61 180 0.0 2.6 0.00 0.00 0.00 58 1012.0
20260505035041 61 180 0.0 2.6 0.00 0.00 0.00 58 1012.0
20260505034926 61 180 0.0 2.6 0.00 0.00 0.00 58 1012.1
20260505034843 61 177 0.0 2.6 0.00 0.00 0.00 59 1012.1
20260505034728 61 174 0.0 2.6 0.00 0.00 0.00 59 1012.0
20260505034619 61 174 0.0 2.6 0.00 0.00 0.00 59 1012.0
20260505034430 61 174 0.9 2.6 0.00 0.00 0.00 59 1012.0
20260505034338 61 174 0.9 2.6 0.00 0.00 0.00 58 1012.0
20260505034230 61 175 0.9 2.6 0.00 0.00 0.00 58 1012.0
20260505034120 61 160 0.9 3.5 0.00 0.00 0.00 58 1012.0
20260505034013 61 160 0.0 2.6 0.00 0.00 0.00 58 1012.0
20260505033925 61 160 0.0 2.6 0.00 0.00 0.00 58 1012.0
20260505033839 61 160 0.0 2.6 0.00 0.00 0.00 58 1012.0
20260505033713 62 160 0.0 2.6 0.00 0.00 0.00 58 1012.0
20260505033629 62 160 0.9 2.6 0.00 0.00 0.00 58 1012.0
20260505033523 62 160 0.9 3.5 0.00 0.00 0.00 58 1012.0
20260505033415 62 179 0.0 3.5 0.00 0.00 0.00 57 1012.0
20260505033317 62 168 0.0 3.5 0.00 0.00 0.00 58 1012.0
20260505033242 62 168 0.9 3.5 0.00 0.00 0.00 57 1012.0
20260505033145 62 168 0.0 3.5 0.00 0.00 0.00 57 1012.0
20260505032936 62 200 0.0 3.5 0.00 0.00 0.00 57 1012.0
20260505032823 62 200 0.9 3.5 0.00 0.00 0.00 57 1012.0
20260505032716 62 200 0.9 3.5 0.00 0.00 0.00 57 1012.0
20260505032635 62 196 0.0 3.5 0.00 0.00 0.00 57 1012.0
20260505032521 62 200 0.0 2.6 0.00 0.00 0.00 58 1012.0
20260505032418 62 200 0.9 2.6 0.00 0.00 0.00 57 1012.1
20260505032318 62 200 0.9 2.6 0.00 0.00 0.00 57 1012.0
20260505032220 62 200 0.0 2.6 0.00 0.00 0.00 58 1012.0
20260505032115 62 201 0.0 1.7 0.00 0.00 0.00 57 1012.1
20260505032019 62 201 0.0 1.7 0.00 0.00 0.00 57 1012.0
20260505031922 62 201 0.0 1.7 0.00 0.00 0.00 57 1012.0
20260505031831 62 201 0.0 1.7 0.00 0.00 0.00 57 1012.1
20260505031741 62 202 0.0 1.7 0.00 0.00 0.00 57 1012.1
20260505031641 62 199 0.0 1.7 0.00 0.00 0.00 58 1012.0
20260505031419 62 199 0.0 1.7 0.00 0.00 0.00 58 1012.1
20260505031343 62 178 0.0 1.7 0.00 0.00 0.00 58 1012.0
20260505031212 62 178 0.0 1.7 0.00 0.00 0.00 58 1012.0
20260505031121 62 178 0.0 1.7 0.00 0.00 0.00 59 1012.0
20260505031010 62 178 0.0 1.7 0.00 0.00 0.00 59 1012.0
20260505030923 62 178 0.0 1.7 0.00 0.00 0.00 59 1012.0
20260505030826 62 178 0.0 1.7 0.00 0.00 0.00 59 1012.0
20260505030740 61 167 0.0 1.7 0.00 0.00 0.00 60 1011.9
20260505030628 61 170 0.0 1.7 0.00 0.00 0.00 60 1012.0
20260505030506 61 170 0.0 1.7 0.00 0.00 0.00 60 1011.9
20260505030502 60 170 0.0 1.7 0.00 0.00 0.00 61 1011.9
20260505030326 60 170 0.0 1.7 0.00 0.00 0.00 61 1011.9
20260505030248 60 170 0.0 1.7 0.00 0.00 0.00 62 1011.9
20260505030126 60 170 0.0 1.7 0.00 0.00 0.00 62 1011.9
20260505025923 60 170 0.0 2.6 0.00 0.00 0.00 62 1011.9
20260505025827 60 170 0.0 2.6 0.00 0.00 0.00 62 1011.9
20260505025716 60 170 0.0 2.6 0.00 0.00 0.00 61 1011.9
20260505025616 60 170 0.0 2.6 0.00 0.00 0.00 61 1011.9
20260505025536 60 170 0.0 2.6 0.00 0.00 0.00 62 1011.9
20260505025415 60 170 0.9 2.6 0.00 0.00 0.00 61 1011.9
20260505025326 60 170 0.9 2.6 0.00 0.00 0.00 62 1011.9
20260505025242 60 170 0.9 3.5 0.00 0.00 0.00 61 1012.0
20260505025140 59 171 0.9 1.7 0.00 0.00 0.00 63 1011.9
20260505025028 59 171 0.9 1.7 0.00 0.00 0.00 62 1011.9
20260505024925 59 183 0.9 1.7 0.00 0.00 0.00 62 1011.9
20260505024827 59 178 0.0 1.7 0.00 0.00 0.00 62 1011.9
20260505024732 59 178 0.0 1.7 0.00 0.00 0.00 63 1011.9
20260505024704 59 197 0.0 1.7 0.00 0.00 0.00 63 1012.0
20260505024700 59 197 0.0 1.7 0.00 0.00 0.00 63 1012.0
20260505024436 59 197 0.0 1.7 0.00 0.00 0.00 63 1012.0
20260505024328 59 197 0.0 1.7 0.00 0.00 0.00 63 1012.0
20260505024235 59 197 0.0 1.7 0.00 0.00 0.00 63 1012.0
20260505024114 59 197 0.0 1.7 0.00 0.00 0.00 63 1012.0
20260505024013 58 197 0.9 1.7 0.00 0.00 0.00 63 1012.0
20260505023917 58 197 0.9 1.7 0.00 0.00 0.00 63 1012.0
20260505023820 59 197 0.9 1.7 0.00 0.00 0.00 63 1012.0
20260505023738 59 197 0.9 1.7 0.00 0.00 0.00 63 1012.0
20260505023631 59 197 0.0 1.7 0.00 0.00 0.00 63 1012.0
20260505023526 58 197 0.0 1.7 0.00 0.00 0.00 63 1012.1
20260505023442 58 197 0.9 1.7 0.00 0.00 0.00 63 1012.1
20260505023333 58 197 0.9 1.7 0.00 0.00 0.00 63 1012.1
20260505023244 59 197 0.0 1.7 0.00 0.00 0.00 63 1012.0
20260505023158 59 197 0.0 1.7 0.00 0.00 0.00 62 1011.9
20260505022921 59 197 0.9 1.7 0.00 0.00 0.00 62 1011.9
20260505022829 59 197 0.0 1.7 0.00 0.00 0.00 61 1011.9
20260505022727 59 197 0.0 1.7 0.00 0.00 0.00 61 1012.0
20260505022622 60 197 0.0 1.7 0.00 0.00 0.00 60 1011.9
20260505022544 60 197 0.0 1.7 0.00 0.00 0.00 60 1011.9
20260505022418 60 197 0.0 1.7 0.00 0.00 0.00 59 1011.9
20260505022314 60 197 0.0 1.7 0.00 0.00 0.00 59 1011.9
20260505022227 60 198 0.0 0.9 0.00 0.00 0.00 60 1011.9
20260505022136 60 198 0.0 0.9 0.00 0.00 0.00 60 1012.0
20260505022016 60 198 0.0 1.7 0.00 0.00 0.00 60 1012.0
20260505021937 60 198 0.0 1.7 0.00 0.00 0.00 60 1012.0
20260505021843 60 198 0.0 1.7 0.00 0.00 0.00 61 1012.0
20260505021752 60 198 0.0 1.7 0.00 0.00 0.00 61 1012.0
20260505021709 60 198 0.0 1.7 0.00 0.00 0.00 60 1012.0
20260505021706 60 198 0.0 1.7 0.00 0.00 0.00 60 1011.9
20260505021440 60 198 0.0 1.7 0.00 0.00 0.00 61 1011.9
20260505021316 60 198 0.0 1.7 0.00 0.00 0.00 61 1011.9
20260505021216 60 198 0.0 1.7 0.00 0.00 0.00 60 1011.8
20260505021136 60 198 0.0 1.7 0.00 0.00 0.00 61 1011.8
20260505021020 60 198 0.0 1.7 0.00 0.00 0.00 61 1011.8
20260505020940 60 198 0.0 1.7 0.00 0.00 0.00 60 1011.8
20260505020814 60 198 0.0 1.7 0.00 0.00 0.00 60 1011.8
20260505020716 60 198 0.0 1.7 0.00 0.00 0.00 60 1011.8
20260505020620 60 198 0.0 1.7 0.00 0.00 0.00 60 1011.8
20260505020513 60 198 0.0 1.7 0.00 0.00 0.00 59 1011.8
20260505020413 60 198 0.0 1.7 0.00 0.00 0.00 60 1011.8
20260505020318 60 198 0.0 1.7 0.00 0.00 0.00 60 1011.8
20260505020250 60 198 0.0 1.7 0.00 0.00 0.00 60 1011.8
20260505020247 60 198 0.0 1.7 0.00 0.00 0.00 60 1011.8
20260505015930 60 198 0.0 1.7 0.00 0.00 0.00 59 1011.9
20260505015838 60 198 0.0 1.7 0.00 0.00 0.00 59 1011.9
20260505015728 60 198 0.0 1.7 0.00 0.00 0.00 59 1011.8
20260505015636 61 198 0.0 1.7 0.00 0.00 0.00 58 1011.8
20260505015540 61 198 0.0 1.7 0.00 0.00 0.00 58 1011.9
20260505015419 61 198 0.0 1.7 0.00 0.00 0.00 58 1011.9
20260505015337 61 198 0.0 1.7 0.00 0.00 0.00 58 1011.9
20260505015222 61 198 0.0 1.7 0.00 0.00 0.00 58 1011.8
20260505015118 62 198 0.0 1.7 0.00 0.00 0.00 57 1011.9
20260505015021 62 198 0.9 1.7 0.00 0.00 0.00 57 1011.8
20260505014936 62 198 0.9 1.7 0.00 0.00 0.00 57 1011.8
20260505014818 61 198 0.9 1.7 0.00 0.00 0.00 57 1011.9
20260505014727 61 198 0.0 1.7 0.00 0.00 0.00 57 1011.8
20260505014658 61 198 0.0 1.7 0.00 0.00 0.00 58 1011.8
20260505014613 61 198 0.0 1.7 0.00 0.00 0.00 57 1011.9
20260505014437 61 198 0.0 1.7 0.00 0.00 0.00 57 1011.8
20260505014337 61 198 0.0 1.7 0.00 0.00 0.00 57 1011.8
20260505014240 61 198 0.0 1.7 0.00 0.00 0.00 57 1011.7
20260505014119 61 198 0.0 1.7 0.00 0.00 0.00 57 1011.8
20260505014033 61 198 0.0 1.7 0.00 0.00 0.00 57 1011.8
20260505013915 61 198 0.0 1.7 0.00 0.00 0.00 57 1011.8
20260505013825 61 198 0.0 1.7 0.00 0.00 0.00 57 1011.9
20260505013722 61 198 0.0 1.7 0.00 0.00 0.00 57 1011.8
20260505013618 61 198 0.9 1.7 0.00 0.00 0.00 57 1011.9
20260505013517 61 198 0.9 1.7 0.00 0.00 0.00 57 1011.9
20260505013434 61 198 0.9 1.7 0.00 0.00 0.00 57 1011.9
20260505013344 61 198 0.0 1.7 0.00 0.00 0.00 56 1011.9
20260505013231 62 198 0.0 1.7 0.00 0.00 0.00 56 1011.9
20260505013149 62 198 0.0 1.7 0.00 0.00 0.00 55 1011.9
20260505012919 62 198 0.0 1.7 0.00 0.00 0.00 54 1011.9
20260505012825 62 198 0.0 1.7 0.00 0.00 0.00 55 1011.9
20260505012720 62 198 0.0 1.7 0.00 0.00 0.00 55 1011.9
20260505012632 62 198 0.0 1.7 0.00 0.00 0.00 55 1011.9
20260505012535 62 198 0.0 1.7 0.00 0.00 0.00 55 1011.8
20260505012413 62 198 0.0 1.7 0.00 0.00 0.00 55 1011.8
20260505012329 62 198 0.0 1.7 0.00 0.00 0.00 55 1011.8
20260505012245 62 198 0.0 1.7 0.00 0.00 0.00 56 1011.8
20260505012140 62 198 0.0 1.7 0.00 0.00 0.00 57 1011.7
20260505012023 62 198 0.0 1.7 0.00 0.00 0.00 57 1011.7
20260505011922 61 198 0.0 1.7 0.00 0.00 0.00 57 1011.8
20260505011836 62 198 0.0 1.7 0.00 0.00 0.00 57 1011.8
20260505011751 62 198 0.9 1.7 0.00 0.00 0.00 57 1011.7
20260505011653 62 198 0.9 1.7 0.00 0.00 0.00 57 1011.7
20260505011413 62 198 0.9 1.7 0.00 0.00 0.00 57 1011.7
20260505011316 62 198 0.9 1.7 0.00 0.00 0.00 57 1011.6
20260505011234 62 198 0.9 1.7 0.00 0.00 0.00 57 1011.5
20260505011135 62 198 0.9 1.7 0.00 0.00 0.00 57 1011.6
20260505011014 62 198 0.9 1.7 0.00 0.00 0.00 57 1011.5
20260505010923 62 198 0.9 1.7 0.00 0.00 0.00 56 1011.5
20260505010832 62 198 0.9 1.7 0.00 0.00 0.00 56 1011.5
20260505010729 62 198 0.9 1.7 0.00 0.00 0.00 56 1011.4
20260505010633 62 198 0.9 1.7 0.00 0.00 0.00 55 1011.5
20260505010539 62 198 0.0 1.7 0.00 0.00 0.00 56 1011.5
20260505010415 62 198 0.0 1.7 0.00 0.00 0.00 55 1011.5
20260505010319 62 198 0.0 1.7 0.00 0.00 0.00 54 1011.5
20260505010257 62 198 0.0 1.7 0.00 0.00 0.00 55 1011.6
20260505010137 62 198 0.0 1.7 0.00 0.00 0.00 56 1011.5
20260505005915 62 198 0.0 1.7 0.00 0.00 0.00 56 1011.5
20260505005827 62 198 0.0 1.7 0.00 0.00 0.00 56 1011.5
20260505005736 62 198 0.0 1.7 0.00 0.00 0.00 56 1011.6
20260505005619 62 198 0.0 1.7 0.00 0.00 0.00 56 1011.5
20260505005521 62 198 0.0 1.7 0.00 0.00 0.00 56 1011.6
20260505005416 62 198 0.0 1.7 0.00 0.00 0.00 55 1011.5
20260505005317 63 198 0.0 1.7 0.00 0.00 0.00 55 1011.5
20260505005243 63 198 0.0 1.7 0.00 0.00 0.00 55 1011.5
20260505005119 63 198 0.0 1.7 0.00 0.00 0.00 55 1011.5
20260505005015 63 198 0.0 1.7 0.00 0.00 0.00 55 1011.5
20260505004921 63 198 0.0 1.7 0.00 0.00 0.00 54 1011.5
20260505004814 63 198 0.0 1.7 0.00 0.00 0.00 54 1011.5
20260505004741 63 198 0.9 1.7 0.00 0.00 0.00 54 1011.4
20260505004646 63 198 0.0 1.7 0.00 0.00 0.00 53 1011.5
20260505004422 63 198 0.9 1.7 0.00 0.00 0.00 53 1011.5
20260505004322 63 198 0.9 1.7 0.00 0.00 0.00 53 1011.6
20260505004241 63 198 0.9 1.7 0.00 0.00 0.00 53 1011.4
20260505004119 63 198 0.9 1.7 0.00 0.00 0.00 53 1011.5
20260505004034 63 198 0.9 1.7 0.00 0.00 0.00 52 1011.5
20260505003934 63 198 0.9 1.7 0.00 0.00 0.00 52 1011.5
20260505003805 64 198 0.0 1.7 0.00 0.00 0.00 53 1011.6
20260505003802 64 198 0.0 1.7 0.00 0.00 0.00 52 1011.5
20260505003635 64 198 0.0 1.7 0.00 0.00 0.00 52 1011.6
20260505003535 64 198 0.0 1.7 0.00 0.00 0.00 52 1011.6
20260505003417 64 198 0.0 1.7 0.00 0.00 0.00 51 1011.5
20260505003328 64 198 0.0 1.7 0.00 0.00 0.00 51 1011.6
20260505003239 65 198 0.0 1.7 0.00 0.00 0.00 50 1011.5
20260505003141 65 198 0.0 1.7 0.00 0.00 0.00 49 1011.4
20260505002913 65 198 0.0 1.7 0.00 0.00 0.00 50 1011.4
20260505002825 65 198 0.0 1.7 0.00 0.00 0.00 48 1011.4
20260505002724 65 198 0.0 1.7 0.00 0.00 0.00 49 1011.3
20260505002633 65 198 0.0 1.7 0.00 0.00 0.00 50 1011.3
20260505002522 65 198 0.0 2.6 0.00 0.00 0.00 50 1011.4
20260505002427 65 198 0.0 2.6 0.00 0.00 0.00 50 1011.4
20260505002325 65 198 0.0 2.6 0.00 0.00 0.00 50 1011.2
20260505002210 65 198 0.0 2.6 0.00 0.00 0.00 49 1011.3
20260505002131 65 198 0.0 2.6 0.00 0.00 0.00 48 1011.3
20260505002028 65 198 0.0 2.6 0.00 0.00 0.00 49 1011.3
20260505001918 65 198 0.0 2.6 0.00 0.00 0.00 49 1011.4
20260505001823 66 198 0.9 2.6 0.00 0.00 0.00 49 1011.5
20260505001724 66 198 0.9 2.6 0.00 0.00 0.00 48 1011.5
20260505001709 66 203 0.0 1.7 0.00 0.00 0.00 48 1011.4
20260505001618 66 208 0.0 1.7 0.00 0.00 0.00 48 1011.5
20260505001445 66 202 0.0 1.7 0.00 0.00 0.00 48 1011.5
20260505001323 66 202 0.0 1.7 0.00 0.00 0.00 48 1011.5
20260505001226 66 202 0.0 1.7 0.00 0.00 0.00 48 1011.5
20260505001128 66 202 0.0 1.7 0.00 0.00 0.00 48 1011.4
20260505001034 66 202 0.0 1.7 0.00 0.00 0.00 47 1011.4
20260505000934 66 202 0.0 0.9 0.00 0.00 0.00 47 1011.4
20260505000832 66 202 0.0 0.9 0.00 0.00 0.00 47 1011.4
20260505000728 66 202 0.0 0.9 0.00 0.00 0.00 47 1011.5
20260505000624 67 202 0.0 0.9 0.00 0.00 0.00 47 1011.4
20260505000544 67 202 0.0 0.9 0.00 0.00 0.00 46 1011.5
20260505000441 67 202 0.0 0.9 0.00 0.00 0.00 46 1011.5
20260505000317 67 202 0.0 0.9 0.00 0.00 0.00 46 1011.4
20260505000245 67 202 0.0 1.7 0.00 0.00 0.00 45 1011.4
20260505000223 67 202 0.0 1.7 0.00 0.00 0.00 45 1011.4
20260505000111 68 202 0.0 1.7 0.00 0.00 0.00 45 1011.4
20260504235938 68 202 0.0 1.7 0.00 0.00 0.00 44 1011.4
20260504235835 68 202 0.0 1.7 0.00 0.00 0.00 44 1011.3
20260504235736 68 202 0.0 1.7 0.00 0.00 0.00 44 1011.3
20260504235615 68 202 0.0 1.7 0.00 0.00 0.00 43 1011.3
20260504235535 68 202 0.0 1.7 0.00 0.00 0.00 43 1011.4
20260504235430 68 202 0.9 1.7 0.00 0.00 0.00 43 1011.3
20260504235317 68 202 0.0 1.7 0.00 0.00 0.00 44 1011.3
20260504235217 69 196 0.0 2.6 0.00 0.00 0.00 44 1011.3
20260504235124 69 196 0.0 2.6 0.00 0.00 0.00 43 1011.3
20260504235039 69 196 0.0 2.6 0.00 0.00 0.00 43 1011.3
20260504234941 69 196 0.0 2.6 0.00 0.00 0.00 43 1011.3
20260504234842 69 196 0.0 2.6 0.00 0.00 0.00 42 1011.3
20260504234740 70 196 0.0 2.6 0.00 0.00 0.00 42 1011.3
20260504234646 70 196 0.9 2.6 0.00 0.00 0.00 41 1011.3
20260504234425 70 196 0.9 2.6 0.00 0.00 0.00 41 1011.4
20260504234323 70 186 0.9 2.6 0.00 0.00 0.00 40 1011.3
20260504234242 70 186 0.9 2.6 0.00 0.00 0.00 40 1011.3
20260504234138 70 186 0.9 4.3 0.00 0.00 0.00 40 1011.3
20260504234019 70 188 0.9 4.3 0.00 0.00 0.00 40 1011.4
20260504233921 70 184 0.9 4.3 0.00 0.00 0.00 40 1011.3
20260504233820 70 144 0.9 4.3 0.00 0.00 0.00 41 1011.3
20260504233742 71 151 0.9 4.3 0.00 0.00 0.00 40 1011.3
20260504233614 71 186 0.0 4.3 0.00 0.00 0.00 39 1011.3
20260504233539 71 223 0.9 5.2 0.00 0.00 0.00 39 1011.3
20260504233429 71 223 0.9 5.2 0.00 0.00 0.00 39 1011.3
20260504233316 71 195 0.9 5.2 0.00 0.00 0.00 39 1011.3
20260504233231 71 193 0.9 5.2 0.00 0.00 0.00 39 1011.2
20260504233225 71 193 0.9 5.2 0.00 0.00 0.00 39 1011.1
20260504233056 71 155 1.7 5.2 0.00 0.00 0.00 39 1011.2
20260504232925 71 179 1.7 5.2 0.00 0.00 0.00 38 1011.1
20260504232833 71 193 0.9 5.2 0.00 0.00 0.00 39 1011.2
20260504232720 72 178 0.9 5.2 0.00 0.00 0.00 39 1011.2
20260504232642 72 211 0.9 4.3 0.00 0.00 0.00 39 1011.2
20260504232514 72 211 1.7 4.3 0.00 0.00 0.00 39 1011.1
20260504232511 72 155 1.7 4.3 0.00 0.00 0.00 38 1011.1
20260504232332 72 153 0.9 5.2 0.00 0.00 0.00 38 1011.1
20260504232236 72 155 0.9 7.8 0.00 0.00 0.00 38 1011.1
20260504232118 72 156 0.9 7.8 0.00 0.00 0.00 38 1011.2
20260504232035 72 171 1.7 7.8 0.00 0.00 0.00 37 1011.1
20260504231921 72 180 1.7 7.8 0.00 0.00 0.00 37 1011.2
20260504231835 72 180 1.7 7.8 0.00 0.00 0.00 38 1011.1
20260504231723 72 205 1.7 7.8 0.00 0.00 0.00 37 1011.2
20260504231708 72 157 2.6 7.8 0.00 0.00 0.00 37 1011.2
20260504231634 72 217 3.5 7.8 0.00 0.00 0.00 37 1011.1
20260504231439 72 227 3.5 7.8 0.00 0.00 0.00 37 1011.2
20260504231337 72 144 1.7 6.1 0.00 0.00 0.00 37 1011.2
20260504231218 72 196 0.9 5.2 0.00 0.00 0.00 38 1011.3
20260504231131 72 194 0.9 6.1 0.00 0.00 0.00 37 1011.2
20260504231032 73 194 1.7 6.1 0.00 0.00 0.00 37 1011.2
20260504230941 72 246 0.9 6.1 0.00 0.00 0.00 37 1011.3
20260504230820 73 194 0.9 6.1 0.00 0.00 0.00 37 1011.2
20260504230742 73 157 1.7 6.1 0.00 0.00 0.00 36 1011.3
20260504230616 73 238 1.7 7.0 0.00 0.00 0.00 37 1011.2
20260504230557 73 225 2.6 7.8 0.00 0.00 0.00 36 1011.2
20260504230433 73 157 3.5 7.8 0.00 0.00 0.00 37 1011.2
20260504230329 73 211 2.6 13.0 0.00 0.00 0.00 36 1011.2
20260504230234 73 254 1.7 13.0 0.00 0.00 0.00 36 1011.2
20260504230210 73 226 1.7 13.0 0.00 0.00 0.00 36 1011.2
20260504225934 73 180 2.6 13.0 0.00 0.00 0.00 37 1011.2
20260504225833 73 222 3.5 13.0 0.00 0.00 0.00 36 1011.1
20260504225717 73 157 2.6 13.0 0.00 0.00 0.00 37 1011.2
20260504225616 73 126 4.3 13.0 0.00 0.00 0.00 36 1011.2
20260504225556 73 123 3.5 13.0 0.00 0.00 0.00 36 1011.1
20260504225433 73 183 1.7 5.2 0.00 0.00 0.00 37 1011.2
20260504225315 73 212 0.9 6.1 0.00 0.00 0.00 36 1011.2
20260504225219 73 178 1.7 6.1 0.00 0.00 0.00 36 1011.2
20260504225113 73 194 2.6 6.1 0.00 0.00 0.00 36 1011.2
20260504225034 73 193 2.6 6.1 0.00 0.00 0.00 36 1011.2
20260504224941 73 166 2.6 5.2 0.00 0.00 0.00 36 1011.2
20260504224828 73 228 1.7 7.0 0.00 0.00 0.00 37 1011.2
20260504224730 73 181 1.7 7.0 0.00 0.00 0.00 36 1011.3
20260504224706 73 202 1.7 7.0 0.00 0.00 0.00 36 1011.3
20260504224620 73 171 0.9 7.0 0.00 0.00 0.00 36 1011.3
20260504224437 73 225 1.7 7.0 0.00 0.00 0.00 36 1011.3
20260504224338 73 175 2.6 7.8 0.00 0.00 0.00 36 1011.4
20260504224232 73 129 2.6 7.8 0.00 0.00 0.00 35 1011.3
20260504224115 73 188 2.6 7.8 0.00 0.00 0.00 35 1011.5
20260504224038 73 204 2.6 7.8 0.00 0.00 0.00 35 1011.4
20260504223934 73 200 2.6 7.8 0.00 0.00 0.00 36 1011.3
20260504223840 73 234 1.7 7.8 0.00 0.00 0.00 35 1011.3
20260504223718 74 236 0.9 7.8 0.00 0.00 0.00 35 1011.3
20260504223635 74 236 2.6 7.8 0.00 0.00 0.00 35 1011.3
20260504223538 74 217 2.6 7.8 0.00 0.00 0.00 35 1011.4
20260504223429 74 298 1.7 7.0 0.00 0.00 0.00 36 1011.4
20260504223337 74 228 2.6 7.0 0.00 0.00 0.00 35 1011.4
20260504223240 74 205 2.6 7.0 0.00 0.00 0.00 35 1011.3
20260504223203 74 234 1.7 8.7 0.00 0.00 0.00 35 1011.4
20260504222924 74 141 1.7 8.7 0.00 0.00 0.00 35 1011.4
20260504222821 74 204 0.9 8.7 0.00 0.00 0.00 35 1011.3
20260504222742 74 188 2.6 8.7 0.00 0.00 0.00 35 1011.3
20260504222629 74 173 3.5 8.7 0.00 0.00 0.00 34 1011.2
20260504222540 74 213 2.6 8.7 0.00 0.00 0.00 34 1011.2
20260504222417 74 216 3.5 11.3 0.00 0.00 0.00 35 1011.1
20260504222333 74 217 4.3 11.3 0.00 0.00 0.00 35 1011.1
20260504222229 74 160 2.6 11.3 0.00 0.00 0.00 35 1011.1
20260504222120 74 207 2.6 11.3 0.00 0.00 0.00 35 1011.1
20260504222017 74 188 3.5 11.3 0.00 0.00 0.00 34 1011.1
20260504221934 74 198 2.6 11.3 0.00 0.00 0.00 34 1011.1
20260504221834 74 185 4.3 11.3 0.00 0.00 0.00 33 1011.1
20260504221728 74 167 4.3 11.3 0.00 0.00 0.00 34 1011.1
20260504221619 74 123 2.6 8.7 0.00 0.00 0.00 34 1011.2
20260504221617 74 155 2.6 11.3 0.00 0.00 0.00 34 1011.1
20260504221423 74 223 2.6 13.0 0.00 0.00 0.00 34 1011.2
20260504221318 74 196 2.6 13.0 0.00 0.00 0.00 33 1011.2
20260504221214 74 236 3.5 13.0 0.00 0.00 0.00 34 1011.2
20260504221131 74 240 4.3 13.0 0.00 0.00 0.00 34 1011.3
20260504221038 74 196 3.5 13.0 0.00 0.00 0.00 33 1011.2
20260504220939 74 181 3.5 13.0 0.00 0.00 0.00 34 1011.2
20260504220842 74 178 5.2 13.0 0.00 0.00 0.00 33 1011.2
20260504220743 74 220 5.2 13.0 0.00 0.00 0.00 33 1011.3
20260504220626 74 175 5.2 13.0 0.00 0.00 0.00 33 1011.3
20260504220536 75 240 3.5 7.8 0.00 0.00 0.00 34 1011.3
20260504220445 75 221 2.6 9.6 0.00 0.00 0.00 34 1011.3
20260504220324 75 253 1.7 9.6 0.00 0.00 0.00 36 1011.3
20260504220246 75 115 1.7 9.6 0.00 0.00 0.00 33 1011.3
20260504220149 75 167 2.6 9.6 0.00 0.00 0.00 34 1011.3
20260504220147 75 219 2.6 9.6 0.00 0.00 0.00 33 1011.3
20260504215940 75 187 1.7 9.6 0.00 0.00 0.00 33 1011.3
20260504215824 75 254 3.5 9.6 0.00 0.00 0.00 34 1011.3
20260504215740 75 239 5.2 9.6 0.00 0.00 0.00 33 1011.3
20260504215642 75 221 4.3 9.6 0.00 0.00 0.00 34 1011.3
20260504215533 75 233 1.7 7.8 0.00 0.00 0.00 34 1011.4
20260504215414 75 231 1.7 7.8 0.00 0.00 0.00 34 1011.3
20260504215333 75 197 1.7 8.7 0.00 0.00 0.00 34 1011.3
20260504215238 75 260 3.5 8.7 0.00 0.00 0.00 34 1011.3
20260504215116 75 170 2.6 8.7 0.00 0.00 0.00 33 1011.3
20260504215029 75 161 2.6 8.7 0.00 0.00 0.00 33 1011.4
20260504214930 75 216 3.5 8.7 0.00 0.00 0.00 33 1011.4
20260504214813 75 159 4.3 8.7 0.00 0.00 0.00 33 1011.4
20260504214747 75 232 4.3 8.7 0.00 0.00 0.00 33 1011.3
20260504214642 75 211 4.3 8.7 0.00 0.00 0.00 32 1011.5
20260504214439 75 183 3.5 7.8 0.00 0.00 0.00 32 1011.4
20260504214322 75 234 3.5 10.4 0.00 0.00 0.00 33 1011.5
20260504214227 75 207 4.3 10.4 0.00 0.00 0.00 33 1011.4
20260504214122 75 184 5.2 10.4 0.00 0.00 0.00 32 1011.4
20260504214029 75 205 5.2 10.4 0.00 0.00 0.00 33 1011.5
20260504213941 75 222 4.3 10.4 0.00 0.00 0.00 32 1011.5
20260504213837 75 136 2.6 10.4 0.00 0.00 0.00 33 1011.5
20260504213740 75 225 2.6 10.4 0.00 0.00 0.00 33 1011.5
20260504213619 75 178 3.5 10.4 0.00 0.00 0.00 33 1011.5
20260504213523 75 194 3.5 10.4 0.00 0.00 0.00 34 1011.6
20260504213443 75 213 3.5 11.3 0.00 0.00 0.00 32 1011.6
20260504213344 75 117 3.5 9.6 0.00 0.00 0.00 34 1011.5
20260504213227 75 177 2.6 9.6 0.00 0.00 0.00 33 1011.4
20260504213153 75 172 2.6 7.8 0.00 0.00 0.00 35 1011.5
20260504212920 75 248 1.7 7.0 0.00 0.00 0.00 33 1011.4
20260504212818 75 196 1.7 7.0 0.00 0.00 0.00 34 1011.5
20260504212746 75 250 2.6 7.0 0.00 0.00 0.00 34 1011.5
20260504212640 75 183 3.5 7.0 0.00 0.00 0.00 35 1011.4
20260504212518 75 213 2.6 7.0 0.00 0.00 0.00 34 1011.4
20260504212440 75 210 2.6 7.0 0.00 0.00 0.00 35 1011.4
20260504212345 75 223 2.6 7.0 0.00 0.00 0.00 35 1011.4
20260504212240 75 205 2.6 10.4 0.00 0.00 0.00 35 1011.5
20260504212116 75 250 2.6 10.4 0.00 0.00 0.00 35 1011.4
20260504212044 75 221 1.7 13.0 0.00 0.00 0.00 34 1011.4
20260504211946 75 194 2.6 13.0 0.00 0.00 0.00 33 1011.4
20260504211834 75 180 2.6 13.0 0.00 0.00 0.00 33 1011.4
20260504211743 75 229 2.6 13.0 0.00 0.00 0.00 34 1011.4
20260504211631 75 127 3.5 13.0 0.00 0.00 0.00 32 1011.3
20260504211617 75 196 3.5 13.0 0.00 0.00 0.00 33 1011.5
20260504211426 75 195 4.3 13.0 0.00 0.00 0.00 33 1011.5
20260504211324 75 187 4.3 13.0 0.00 0.00 0.00 32 1011.5
20260504211240 75 163 2.6 7.0 0.00 0.00 0.00 34 1011.5
20260504211144 75 205 2.6 7.0 0.00 0.00 0.00 34 1011.4
20260504211021 75 90 1.7 7.0 0.00 0.00 0.00 33 1011.4
20260504210941 75 223 3.5 7.0 0.00 0.00 0.00 33 1011.4
20260504210830 75 153 3.5 12.2 0.00 0.00 0.00 32 1011.4
20260504210732 76 211 2.6 12.2 0.00 0.00 0.00 34 1011.5
20260504210636 75 210 2.6 12.2 0.00 0.00 0.00 34 1011.4
20260504210518 75 229 2.6 12.2 0.00 0.00 0.00 33 1011.4
20260504210441 75 235 3.5 12.2 0.00 0.00 0.00 33 1011.5
20260504210342 76 148 3.5 12.2 0.00 0.00 0.00 32 1011.4
20260504210240 76 189 3.5 12.2 0.00 0.00 0.00 32 1011.5
20260504210204 76 236 4.3 12.2 0.00 0.00 0.00 33 1011.3
20260504210135 76 140 4.3 12.2 0.00 0.00 0.00 32 1011.5
20260504205919 76 177 3.5 8.7 0.00 0.00 0.00 32 1011.5
20260504205823 76 152 4.3 8.7 0.00 0.00 0.00 31 1011.4
20260504205744 76 188 4.3 8.7 0.00 0.00 0.00 30 1011.5
20260504205635 76 120 4.3 8.7 0.00 0.00 0.00 31 1011.6
20260504205539 76 159 4.3 8.7 0.00 0.00 0.00 32 1011.6
20260504205429 76 279 4.3 10.4 0.00 0.00 0.00 32 1011.6
20260504205319 76 198 4.3 8.7 0.00 0.00 0.00 32 1011.6
20260504205233 76 216 4.3 8.7 0.00 0.00 0.00 31 1011.6
20260504205133 76 202 4.3 8.7 0.00 0.00 0.00 31 1011.6
20260504205022 76 99 3.5 8.7 0.00 0.00 0.00 31 1011.5
20260504204939 76 198 3.5 8.7 0.00 0.00 0.00 32 1011.5
20260504204825 76 209 2.6 9.6 0.00 0.00 0.00 31 1011.5
20260504204742 76 273 2.6 8.7 0.00 0.00 0.00 32 1011.5
20260504204640 76 199 2.6 10.4 0.00 0.00 0.00 30 1011.5
20260504204434 77 196 2.6 10.4 0.00 0.00 0.00 32 1011.5
20260504204337 76 271 1.7 10.4 0.00 0.00 0.00 31 1011.5
20260504204242 76 240 2.6 10.4 0.00 0.00 0.00 30 1011.6
20260504204140 76 163 3.5 13.0 0.00 0.00 0.00 31 1011.5
20260504204039 76 149 4.3 13.0 0.00 0.00 0.00 31 1011.5
20260504203918 76 146 4.3 13.0 0.00 0.00 0.00 30 1011.5
20260504203839 76 194 3.5 13.0 0.00 0.00 0.00 30 1011.4
20260504203732 76 132 0.9 13.0 0.00 0.00 0.00 33 1011.5
20260504203628 76 251 2.6 13.0 0.00 0.00 0.00 33 1011.5
20260504203517 76 194 4.3 13.0 0.00 0.00 0.00 31 1011.5
20260504203422 76 202 5.2 13.0 0.00 0.00 0.00 31 1011.5
20260504203332 76 181 3.5 12.2 0.00 0.00 0.00 33 1011.4
20260504203237 76 244 1.7 9.6 0.00 0.00 0.00 30 1011.5
20260504203135 76 161 1.7 9.6 0.00 0.00 0.00 31 1011.5
20260504203132 76 249 0.9 9.6 0.00 0.00 0.00 32 1011.4
20260504202938 76 252 1.7 9.6 0.00 0.00 0.00 31 1011.5
20260504202817 76 267 2.6 9.6 0.00 0.00 0.00 30 1011.5
20260504202736 76 190 4.3 9.6 0.00 0.00 0.00 30 1011.4
20260504202638 76 198 5.2 9.6 0.00 0.00 0.00 30 1011.5
20260504202535 76 115 4.3 9.6 0.00 0.00 0.00 29 1011.4
20260504202433 76 135 2.6 9.6 0.00 0.00 0.00 33 1011.6
20260504202325 76 160 2.6 9.6 0.00 0.00 0.00 32 1011.5
20260504202220 76 134 2.6 9.6 0.00 0.00 0.00 31 1011.5
20260504202134 76 168 3.5 9.6 0.00 0.00 0.00 30 1011.5
20260504202029 76 228 4.3 9.6 0.00 0.00 0.00 30 1011.5
20260504201930 76 256 3.5 9.6 0.00 0.00 0.00 30 1011.6
20260504201841 76 204 3.5 9.6 0.00 0.00 0.00 30 1011.6
20260504201735 76 177 4.3 9.6 0.00 0.00 0.00 29 1011.6
20260504201632 76 112 4.3 9.6 0.00 0.00 0.00 29 1011.6
20260504201441 76 180 2.6 9.6 0.00 0.00 0.00 32 1011.6
20260504201320 76 237 0.9 9.6 0.00 0.00 0.00 33 1011.5
20260504201232 76 78 1.7 9.6 0.00 0.00 0.00 34 1011.5
20260504201131 75 173 2.6 9.6 0.00 0.00 0.00 30 1011.5
20260504201022 75 189 4.3 9.6 0.00 0.00 0.00 30 1011.6
20260504200940 76 186 6.1 9.6 0.00 0.00 0.00 29 1011.7
20260504200829 76 138 6.1 11.3 0.00 0.00 0.00 30 1011.7
20260504200719 76 146 5.2 11.3 0.00 0.00 0.00 30 1011.7
20260504200629 76 228 5.2 11.3 0.00 0.00 0.00 31 1011.7
20260504200524 76 254 4.3 11.3 0.00 0.00 0.00 30 1011.6
20260504200415 76 246 3.5 9.6 0.00 0.00 0.00 30 1011.8
20260504200328 76 251 3.5 9.6 0.00 0.00 0.00 31 1011.8
20260504200224 76 218 2.6 9.6 0.00 0.00 0.00 30 1011.8
20260504200040 76 142 2.6 9.6 0.00 0.00 0.00 31 1011.8
20260504195941 76 174 2.6 9.6 0.00 0.00 0.00 29 1011.9
20260504195838 76 227 4.3 9.6 0.00 0.00 0.00 29 1011.8
20260504195724 76 144 3.5 9.6 0.00 0.00 0.00 30 1011.9
20260504195632 76 253 3.5 7.0 0.00 0.00 0.00 34 1011.9
20260504195517 76 209 2.6 7.0 0.00 0.00 0.00 29 1011.9
20260504195435 76 162 1.7 7.0 0.00 0.00 0.00 30 1012.0
20260504195342 76 254 2.6 7.0 0.00 0.00 0.00 30 1011.9
20260504195240 76 225 3.5 8.7 0.00 0.00 0.00 31 1012.0
20260504195128 76 194 3.5 7.0 0.00 0.00 0.00 31 1012.0
20260504195028 76 192 3.5 7.0 0.00 0.00 0.00 31 1012.0
20260504194918 76 186 3.5 7.0 0.00 0.00 0.00 30 1012.0
20260504194842 76 295 3.5 7.0 0.00 0.00 0.00 30 1012.0
20260504194730 76 144 3.5 7.0 0.00 0.00 0.00 29 1011.9
20260504194708 76 148 3.5 7.8 0.00 0.00 0.00 32 1012.0
20260504194617 76 148 2.6 7.8 0.00 0.00 0.00 31 1011.9
20260504194422 76 140 1.7 7.8 0.00 0.00 0.00 30 1012.0
20260504194332 76 246 1.7 9.6 0.00 0.00 0.00 30 1012.0
20260504194223 76 148 1.7 9.6 0.00 0.00 0.00 30 1011.9
20260504194131 76 300 3.5 9.6 0.00 0.00 0.00 28 1011.9
20260504194033 76 185 3.5 13.0 0.00 0.00 0.00 29 1012.0
20260504193922 76 346 3.5 13.0 0.00 0.00 0.00 30 1011.9
20260504193837 76 265 3.5 13.0 0.00 0.00 0.00 30 1011.9
20260504193744 76 228 2.6 13.0 0.00 0.00 0.00 31 1012.0
20260504193628 76 130 3.5 13.0 0.00 0.00 0.00 31 1012.0
20260504193519 76 113 3.5 13.0 0.00 0.00 0.00 30 1012.1
20260504193411 76 278 2.6 13.0 0.00 0.00 0.00 32 1012.1
20260504193244 76 184 5.2 13.0 0.00 0.00 0.00 30 1012.1
20260504193138 76 161 5.2 13.0 0.00 0.00 0.00 31 1012.2
20260504193134 75 263 4.3 11.3 0.00 0.00 0.00 31 1012.1
20260504192931 75 274 3.5 11.3 0.00 0.00 0.00 31 1012.1
20260504192837 75 232 2.6 11.3 0.00 0.00 0.00 30 1012.2
20260504192736 76 215 3.5 11.3 0.00 0.00 0.00 29 1012.2
20260504192633 76 202 4.3 11.3 0.00 0.00 0.00 29 1012.2
20260504192528 76 240 3.5 11.3 0.00 0.00 0.00 29 1012.2
20260504192440 77 230 2.6 7.8 0.00 0.00 0.00 35 1012.3
20260504192345 76 227 2.6 7.8 0.00 0.00 0.00 29 1012.4
20260504192234 76 265 3.5 7.8 0.00 0.00 0.00 32 1012.4
20260504192109 76 136 4.3 7.8 0.00 0.00 0.00 31 1012.3
20260504192036 76 286 3.5 7.8 0.00 0.00 0.00 32 1012.4
20260504191934 76 323 2.6 7.8 0.00 0.00 0.00 32 1012.3
20260504191830 76 190 2.6 7.8 0.00 0.00 0.00 31 1012.3
20260504191742 76 232 2.6 7.8 0.00 0.00 0.00 30 1012.3
20260504191623 76 304 2.6 9.6 0.00 0.00 0.00 34 1012.4
20260504191438 76 271 1.7 9.6 0.00 0.00 0.00 32 1012.5
20260504191342 76 216 2.6 9.6 0.00 0.00 0.00 32 1012.4
20260504191232 75 150 3.5 9.6 0.00 0.00 0.00 30 1012.5
20260504191139 75 225 3.5 9.6 0.00 0.00 0.00 30 1012.6
20260504191038 76 121 3.5 9.6 0.00 0.00 0.00 31 1012.5
20260504190924 76 241 5.2 9.6 0.00 0.00 0.00 30 1012.5
20260504190841 76 108 4.3 7.8 0.00 0.00 0.00 30 1012.6
20260504190740 76 225 3.5 7.8 0.00 0.00 0.00 31 1012.5
20260504190628 76 179 3.5 8.7 0.00 0.00 0.00 31 1012.5
20260504190526 76 198 2.6 8.7 0.00 0.00 0.00 31 1012.5
20260504190430 76 212 3.5 8.7 0.00 0.00 0.00 33 1012.5
20260504190341 75 126 3.5 9.6 0.00 0.00 0.00 33 1012.5
20260504190233 75 262 2.6 9.6 0.00 0.00 0.00 31 1012.5
20260504190124 75 220 2.6 9.6 0.00 0.00 0.00 31 1012.5
20260504185924 75 207 2.6 9.6 0.00 0.00 0.00 30 1012.5
20260504185844 76 267 3.5 9.6 0.00 0.00 0.00 32 1012.7
20260504185733 75 179 3.5 12.2 0.00 0.00 0.00 31 1012.6
20260504185630 75 209 4.3 12.2 0.00 0.00 0.00 32 1012.6
20260504185522 75 193 5.2 12.2 0.00 0.00 0.00 31 1012.5
20260504185439 75 244 3.5 12.2 0.00 0.00 0.00 31 1012.7
20260504185320 75 173 4.3 12.2 0.00 0.00 0.00 32 1012.6
20260504185221 75 192 5.2 12.2 0.00 0.00 0.00 31 1012.5
20260504185127 75 228 5.2 12.2 0.00 0.00 0.00 31 1012.8
20260504185028 75 188 5.2 12.2 0.00 0.00 0.00 30 1012.7
20260504184939 76 211 3.5 12.2 0.00 0.00 0.00 30 1012.7
20260504184844 76 197 1.7 10.4 0.00 0.00 0.00 31 1012.7
20260504184720 76 243 1.7 10.4 0.00 0.00 0.00 30 1012.6
20260504184647 76 187 0.9 10.4 0.00 0.00 0.00 34 1012.6
20260504184610 75 144 0.9 10.4 0.00 0.00 0.00 31 1012.7
20260504184433 75 204 1.7 10.4 0.00 0.00 0.00 31 1012.7
20260504184333 75 313 1.7 10.4 0.00 0.00 0.00 31 1012.7
20260504184241 75 271 3.5 10.4 0.00 0.00 0.00 32 1012.6
20260504184145 75 267 5.2 10.4 0.00 0.00 0.00 31 1012.7
20260504184038 75 237 5.2 10.4 0.00 0.00 0.00 32 1012.6
20260504183937 75 298 4.3 9.6 0.00 0.00 0.00 31 1012.7
20260504183826 75 181 4.3 9.6 0.00 0.00 0.00 30 1012.8
20260504183720 75 173 6.1 11.3 0.00 0.00 0.00 31 1012.8
20260504183635 75 256 5.2 11.3 0.00 0.00 0.00 33 1012.8
20260504183526 75 265 4.3 11.3 0.00 0.00 0.00 30 1012.7
20260504183443 75 197 2.6 11.3 0.00 0.00 0.00 31 1012.9
20260504183335 75 300 1.7 11.3 0.00 0.00 0.00 32 1012.9
20260504183228 75 198 1.7 11.3 0.00 0.00 0.00 33 1012.9
20260504183144 74 170 2.6 11.3 0.00 0.00 0.00 32 1012.9
20260504182939 74 194 5.2 12.2 0.00 0.00 0.00 32 1013.0
20260504182833 74 167 4.3 8.7 0.00 0.00 0.00 30 1013.0
20260504182717 75 169 5.2 8.7 0.00 0.00 0.00 30 1012.9
20260504182623 75 159 5.2 8.7 0.00 0.00 0.00 30 1013.0
20260504182550 75 234 3.5 10.4 0.00 0.00 0.00 33 1013.0
20260504182445 75 236 3.5 13.0 0.00 0.00 0.00 33 1013.0
20260504182318 75 225 4.3 13.0 0.00 0.00 0.00 30 1013.0
20260504182242 75 219 3.5 13.0 0.00 0.00 0.00 35 1012.9
20260504182134 74 119 3.5 13.0 0.00 0.00 0.00 34 1013.0
20260504182026 74 219 4.3 13.0 0.00 0.00 0.00 34 1013.0
20260504181918 74 254 4.3 13.0 0.00 0.00 0.00 32 1013.0
20260504181829 74 159 4.3 13.0 0.00 0.00 0.00 32 1012.9
20260504181731 74 233 4.3 13.0 0.00 0.00 0.00 32 1012.9
20260504181655 74 209 5.2 13.0 0.00 0.00 0.00 31 1013.0
20260504181610 74 216 5.2 12.2 0.00 0.00 0.00 32 1012.9
20260504181437 74 239 4.3 11.3 0.00 0.00 0.00 32 1013.0
20260504181328 74 273 3.5 11.3 0.00 0.00 0.00 32 1013.0
20260504181238 74 111 3.5 11.3 0.00 0.00 0.00 33 1013.0
20260504181123 74 119 3.5 12.2 0.00 0.00 0.00 33 1013.0
20260504181025 74 261 2.6 12.2 0.00 0.00 0.00 31 1013.0
20260504180944 74 214 3.5 12.2 0.00 0.00 0.00 34 1013.0
20260504180841 73 213 5.2 12.2 0.00 0.00 0.00 33 1013.0
20260504180733 73 283 5.2 12.2 0.00 0.00 0.00 32 1013.0
20260504180640 74 247 6.1 13.0 0.00 0.00 0.00 32 1013.2
20260504180528 74 227 5.2 13.0 0.00 0.00 0.00 32 1013.1
20260504180431 73 221 5.2 13.0 0.00 0.00 0.00 34 1013.2
20260504180320 73 146 5.2 13.0 0.00 0.00 0.00 34 1013.1
20260504180236 73 132 5.2 13.0 0.00 0.00 0.00 33 1013.1
20260504180216 73 219 5.2 13.0 0.00 0.00 0.00 32 1013.1
20260504180101 73 248 5.2 13.0 0.00 0.00 0.00 32 1013.2
20260504175938 73 161 6.1 13.0 0.00 0.00 0.00 31 1013.1
20260504175820 74 140 5.2 13.0 0.00 0.00 0.00 33 1013.1
20260504175741 74 250 5.2 13.0 0.00 0.00 0.00 32 1013.3
20260504175638 74 104 5.2 13.0 0.00 0.00 0.00 32 1013.2
20260504175544 74 232 4.3 13.0 0.00 0.00 0.00 32 1013.3
20260504175426 74 227 3.5 9.6 0.00 0.00 0.00 35 1013.4
20260504175344 73 246 3.5 9.6 0.00 0.00 0.00 34 1013.4
20260504175228 73 128 2.6 9.6 0.00 0.00 0.00 34 1013.3
20260504175118 73 178 2.6 9.6 0.00 0.00 0.00 32 1013.2
20260504175024 73 223 3.5 9.6 0.00 0.00 0.00 32 1013.3
20260504174935 73 248 2.6 11.3 0.00 0.00 0.00 32 1013.4
20260504174849 73 239 3.5 11.3 0.00 0.00 0.00 33 1013.4
20260504174738 73 198 3.5 11.3 0.00 0.00 0.00 32 1013.4
20260504174653 73 277 2.6 11.3 0.00 0.00 0.00 32 1013.4
20260504174555 73 242 3.5 11.3 0.00 0.00 0.00 34 1013.3
20260504174444 74 145 4.3 11.3 0.00 0.00 0.00 32 1013.3
20260504174317 74 190 6.1 11.3 0.00 0.00 0.00 33 1013.3
20260504174228 74 208 5.2 11.3 0.00 0.00 0.00 32 1013.2
20260504174124 74 177 3.5 12.2 0.00 0.00 0.00 35 1013.1
20260504174021 74 183 2.6 9.6 0.00 0.00 0.00 33 1013.2
20260504173927 74 211 3.5 9.6 0.00 0.00 0.00 34 1013.2
20260504173832 74 148 4.3 9.6 0.00 0.00 0.00 32 1013.3
20260504173709 74 240 3.5 9.6 0.00 0.00 0.00 33 1013.2
20260504173645 74 191 3.5 8.7 0.00 0.00 0.00 33 1013.2
20260504173544 73 135 3.5 8.7 0.00 0.00 0.00 33 1013.3
20260504173421 73 269 2.6 7.8 0.00 0.00 0.00 36 1013.4
20260504173341 73 232 3.5 7.8 0.00 0.00 0.00 35 1013.4
20260504173233 73 234 3.5 7.8 0.00 0.00 0.00 32 1013.4
20260504173136 73 218 1.7 8.7 0.00 0.00 0.00 35 1013.4
20260504172939 73 296 3.5 8.7 0.00 0.00 0.00 33 1013.4
20260504172836 73 187 2.6 8.7 0.00 0.00 0.00 35 1013.6
20260504172739 73 320 2.6 8.7 0.00 0.00 0.00 34 1013.4
20260504172618 72 281 3.5 8.7 0.00 0.00 0.00 33 1013.5
20260504172536 72 360 4.3 8.7 0.00 0.00 0.00 33 1013.4
20260504172440 73 208 3.5 8.7 0.00 0.00 0.00 33 1013.6
20260504172323 73 240 2.6 8.7 0.00 0.00 0.00 35 1013.6
20260504172220 73 257 2.6 8.7 0.00 0.00 0.00 35 1013.6
20260504172117 73 236 3.5 8.7 0.00 0.00 0.00 34 1013.7
20260504172033 73 214 3.5 8.7 0.00 0.00 0.00 34 1013.8
20260504171933 73 245 3.5 8.7 0.00 0.00 0.00 37 1013.7
20260504171826 73 247 3.5 8.7 0.00 0.00 0.00 34 1013.8
20260504171728 72 202 3.5 8.7 0.00 0.00 0.00 36 1013.8
20260504171659 72 258 2.6 8.7 0.00 0.00 0.00 35 1013.8
20260504171639 72 217 3.5 8.7 0.00 0.00 0.00 35 1013.8
20260504171421 72 288 2.6 8.7 0.00 0.00 0.00 35 1013.9
20260504171342 72 205 1.7 9.6 0.00 0.00 0.00 34 1013.9
20260504171224 73 237 2.6 9.6 0.00 0.00 0.00 36 1013.9
20260504171146 72 209 1.7 9.6 0.00 0.00 0.00 34 1013.9
20260504171035 72 150 1.7 9.6 0.00 0.00 0.00 34 1013.9
20260504170921 71 169 2.6 9.6 0.00 0.00 0.00 34 1013.9
20260504170845 72 94 3.5 9.6 0.00 0.00 0.00 36 1013.9
20260504170721 72 243 5.2 9.6 0.00 0.00 0.00 33 1014.0
20260504170642 72 228 3.5 9.6 0.00 0.00 0.00 36 1013.9
20260504170520 71 248 2.6 8.7 0.00 0.00 0.00 34 1014.0
20260504170419 71 153 3.5 8.7 0.00 0.00 0.00 35 1014.1
20260504170317 71 148 3.5 7.8 0.00 0.00 0.00 34 1014.1
20260504170240 72 194 3.5 7.8 0.00 0.00 0.00 35 1014.1
20260504170207 72 232 2.6 7.0 0.00 0.00 0.00 36 1014.0
20260504170140 72 257 1.7 7.8 0.00 0.00 0.00 34 1014.1
20260504160431 70 195 1.7 6.1 0.00 0.00 0.00 34 1014.9
20260504160325 70 165 0.9 7.0 0.00 0.00 0.00 37 1014.8
20260504160242 70 19 1.7 7.0 0.00 0.00 0.00 34 1014.9
20260504160142 70 211 2.6 7.8 0.00 0.00 0.00 36 1014.8
20260504151120 67 166 3.5 6.1 0.00 0.00 0.00 37 1015.2
20260504151034 67 257 2.6 6.1 0.00 0.00 0.00 38 1015.1
20260504150935 67 159 1.7 6.1 0.00 0.00 0.00 37 1015.1
20260504150836 67 242 2.6 6.1 0.00 0.00 0.00 37 1015.1
20260504150728 67 198 1.7 7.0 0.00 0.00 0.00 37 1015.2
20260504150640 67 171 2.6 7.0 0.00 0.00 0.00 39 1015.3
20260504150525 67 263 2.6 7.0 0.00 0.00 0.00 37 1015.2
20260504150427 67 352 0.9 7.0 0.00 0.00 0.00 43 1015.3
20260504150340 66 236 1.7 7.0 0.00 0.00 0.00 40 1015.3
20260504150220 66 271 1.7 7.0 0.00 0.00 0.00 38 1015.3
20260504150136 66 281 1.7 7.0 0.00 0.00 0.00 41 1015.3
20260504141219 63 184 1.7 6.1 0.00 0.00 0.00 49 1015.3
20260504141134 62 153 1.7 6.1 0.00 0.00 0.00 46 1015.3
20260504141037 62 134 1.7 6.1 0.00 0.00 0.00 45 1015.3
20260504140927 63 161 1.7 6.1 0.00 0.00 0.00 46 1015.3
20260504140827 63 183 1.7 6.1 0.00 0.00 0.00 46 1015.3
20260504140734 63 192 1.7 6.1 0.00 0.00 0.00 50 1015.3
20260504140633 63 260 1.7 6.1 0.00 0.00 0.00 48 1015.3
20260504140523 63 182 1.7 6.1 0.00 0.00 0.00 45 1015.2
20260504140426 63 204 1.7 6.1 0.00 0.00 0.00 46 1015.2
20260504140326 63 328 0.9 4.3 0.00 0.00 0.00 48 1015.3
20260504140250 62 272 0.9 4.3 0.00 0.00 0.00 47 1015.3
20260504140130 62 337 0.9 4.3 0.00 0.00 0.00 47 1015.3
20260504140126 62 296 1.7 4.3 0.00 0.00 0.00 47 1015.3
20260504130711 59 236 1.7 7.0 0.00 0.00 0.00 52 1015.4
20260504130636 59 256 3.5 7.0 0.00 0.00 0.00 50 1015.4
20260504130521 59 173 3.5 7.0 0.00 0.00 0.00 51 1015.5
20260504130438 59 216 1.7 6.1 0.00 0.00 0.00 53 1015.5
20260504130348 59 215 1.7 9.6 0.00 0.00 0.00 52 1015.5
20260504130231 58 209 2.6 9.6 0.00 0.00 0.00 51 1015.5
20260504130201 58 198 2.6 9.6 0.00 0.00 0.00 51 1015.4
20260504130110 58 224 2.6 9.6 0.00 0.00 0.00 52 1015.4
20260504120235 54 200 0.9 6.1 0.00 0.00 0.00 60 1016.1
20260504120128 54 216 1.7 6.1 0.00 0.00 0.00 59 1016.1
20260504120115 54 186 1.7 6.1 0.00 0.00 0.00 60 1016.1
20260504110629 51 178 0.0 1.7 0.00 0.00 0.00 65 1016.2
20260504110526 51 178 0.0 2.6 0.00 0.00 0.00 66 1016.3
20260504110433 51 178 0.0 2.6 0.00 0.00 0.00 65 1016.2
20260504110317 51 178 0.0 2.6 0.00 0.00 0.00 65 1016.3
20260504110228 51 178 0.0 2.6 0.00 0.00 0.00 65 1016.2
20260504110151 51 178 0.0 2.6 0.00 0.00 0.00 65 1016.2
20260504110131 51 178 0.0 2.6 0.00 0.00 0.00 65 1016.2
20260504100536 51 162 0.9 5.2 0.00 0.00 0.00 65 1016.3
20260504100448 51 161 0.9 5.2 0.00 0.00 0.00 65 1016.3
20260504100321 51 189 0.9 5.2 0.00 0.00 0.00 65 1016.3
20260504100247 51 232 0.9 5.2 0.00 0.00 0.00 65 1016.3
20260504100143 51 171 0.9 5.2 0.00 0.00 0.00 65 1016.3
20260504090129 50 175 0.0 2.6 0.00 0.00 0.00 69 1016.3
20260504081929 50 170 0.0 1.7 0.00 0.00 0.00 69 1016.2
20260504081831 50 170 0.0 1.7 0.00 0.00 0.00 69 1016.2
20260504081740 50 170 0.0 1.7 0.00 0.00 0.00 69 1016.2
20260504081709 50 170 0.0 1.7 0.00 0.00 0.00 70 1016.2
20260504081639 50 170 0.0 1.7 0.00 0.00 0.00 70 1016.2
20260504081449 50 160 0.0 2.6 0.00 0.00 0.00 70 1016.2
20260504081324 50 160 0.0 2.6 0.00 0.00 0.00 70 1016.2
20260504081221 50 160 0.0 2.6 0.00 0.00 0.00 70 1016.1
20260504081139 50 161 0.0 2.6 0.00 0.00 0.00 70 1016.2
20260504081044 50 148 0.0 2.6 0.00 0.00 0.00 70 1016.2
20260504080926 50 148 0.0 2.6 0.00 0.00 0.00 70 1016.2
20260504080838 50 148 0.0 2.6 0.00 0.00 0.00 70 1016.2
20260504080726 50 148 0.0 2.6 0.00 0.00 0.00 70 1016.2
20260504080627 50 148 0.0 2.6 0.00 0.00 0.00 70 1016.2
20260504080532 50 211 0.0 2.6 0.00 0.00 0.00 70 1016.2
20260504080423 50 211 0.0 2.6 0.00 0.00 0.00 70 1016.2
20260504080321 50 232 0.9 2.6 0.00 0.00 0.00 70 1016.3
20260504080225 50 158 0.9 1.7 0.00 0.00 0.00 70 1016.2
20260504080143 50 164 0.0 1.7 0.00 0.00 0.00 70 1016.2
20260504070324 48 169 0.0 1.7 0.00 0.00 0.00 76 1016.5
20260504070248 48 169 0.0 1.7 0.00 0.00 0.00 76 1016.6
20260504070245 48 169 0.0 1.7 0.00 0.00 0.00 76 1016.6
20260504070128 48 169 0.0 1.7 0.00 0.00 0.00 75 1016.6
20260504060138 46 166 0.0 1.7 0.00 0.00 0.00 76 1016.6
20260504050742 46 164 0.0 1.7 0.00 0.00 0.00 74 1016.7
20260504050626 46 163 0.0 3.5 0.00 0.00 0.00 74 1016.7
20260504050525 47 163 0.0 3.5 0.00 0.00 0.00 74 1016.7
20260504050427 47 163 0.0 3.5 0.00 0.00 0.00 74 1016.7
20260504050324 47 163 0.0 3.5 0.00 0.00 0.00 74 1016.7
20260504050253 47 163 0.9 3.5 0.00 0.00 0.00 74 1016.6
20260504050203 47 189 0.0 3.5 0.00 0.00 0.00 74 1016.6
20260504050129 47 189 0.0 3.5 0.00 0.00 0.00 73 1016.7
20260504045943 47 189 0.9 3.5 0.00 0.00 0.00 73 1016.7
20260504045827 47 180 0.9 3.5 0.00 0.00 0.00 74 1016.7
20260504045735 46 205 0.9 4.3 0.00 0.00 0.00 74 1016.7
20260504045635 46 158 0.9 4.3 0.00 0.00 0.00 75 1016.7
20260504045546 46 185 0.0 2.6 0.00 0.00 0.00 74 1016.6
20260504045424 46 178 0.9 2.6 0.00 0.00 0.00 75 1016.6
20260504045333 46 178 0.9 2.6 0.00 0.00 0.00 75 1016.7
20260504045231 46 175 0.0 2.6 0.00 0.00 0.00 76 1016.7
20260504045117 46 175 0.0 2.6 0.00 0.00 0.00 76 1016.7
20260504045030 46 175 0.9 2.6 0.00 0.00 0.00 76 1016.8
20260504044933 45 175 0.9 2.6 0.00 0.00 0.00 77 1016.5
20260504044837 45 160 0.0 1.7 0.00 0.00 0.00 77 1016.7
20260504044725 44 170 0.0 1.7 0.00 0.00 0.00 78 1016.6
20260504044535 44 155 0.0 1.7 0.00 0.00 0.00 79 1016.6
20260504044337 44 155 0.9 1.7 0.00 0.00 0.00 79 1016.7
20260504044223 44 155 0.9 1.7 0.00 0.00 0.00 79 1016.8
20260504044121 44 155 0.9 1.7 0.00 0.00 0.00 79 1016.7
20260504044026 44 155 0.9 1.7 0.00 0.00 0.00 79 1016.8
20260504043930 44 155 0.9 1.7 0.00 0.00 0.00 78 1016.9
20260504043827 44 155 0.0 1.7 0.00 0.00 0.00 78 1016.8
20260504043740 44 155 0.0 2.6 0.00 0.00 0.00 78 1016.9
20260504043635 44 155 0.0 2.6 0.00 0.00 0.00 78 1016.7
20260504043530 44 155 0.0 2.6 0.00 0.00 0.00 78 1016.8
20260504043428 44 155 0.0 2.6 0.00 0.00 0.00 78 1016.7
20260504043314 43 155 0.0 2.6 0.00 0.00 0.00 79 1016.8
20260504043240 43 155 0.0 2.6 0.00 0.00 0.00 79 1016.8
20260504043147 43 155 0.9 2.6 0.00 0.00 0.00 79 1016.7
20260504042937 43 155 1.7 2.6 0.00 0.00 0.00 79 1016.8
20260504042819 43 157 1.7 2.6 0.00 0.00 0.00 79 1016.9
20260504042723 43 157 0.9 2.6 0.00 0.00 0.00 79 1016.8
20260504042638 43 157 1.7 2.6 0.00 0.00 0.00 79 1016.8
20260504042537 43 157 0.9 1.7 0.00 0.00 0.00 79 1016.8
20260504042429 43 157 0.9 1.7 0.00 0.00 0.00 78 1016.8
20260504042338 43 157 0.9 1.7 0.00 0.00 0.00 78 1016.8
20260504042207 43 157 0.9 1.7 0.00 0.00 0.00 78 1016.7
20260504042135 43 157 0.9 1.7 0.00 0.00 0.00 78 1016.7
20260504042026 43 157 0.0 1.7 0.00 0.00 0.00 78 1016.8
20260504041918 43 157 0.0 1.7 0.00 0.00 0.00 78 1016.8
20260504041841 43 157 0.0 1.7 0.00 0.00 0.00 78 1016.8
20260504041747 43 157 0.0 1.7 0.00 0.00 0.00 78 1016.7
20260504041731 43 157 0.0 1.7 0.00 0.00 0.00 78 1016.7